Regional Weather Roundup
Issued by NWS

Home | Current Version | Previous Version | Graphics & Text | Print | Product List | Glossary Off
Versions: 1 2 3 4 5 6 7 8 9 10 11 12 13 14 15 16 17 18 19 20 21 22 23 24 25 26 27 28 29 30 31 32 33 34 35 36 37 38 39 40 41 42 43 44 45 46 47 48 49 50

000
ASUS43 KMPX 070710
RWRMN
WEATHER ROUNDUP FOR MINNESOTA
NATIONAL WEATHER SERVICE TWIN CITIES/CHANHASSEN MN
100 AM CST WED DEC 07 2016


NOTE: "FAIR" INDICATES FEW OR NO CLOUDS BELOW 12,000 FEET WITH NO
SIGNIFICANT WEATHER AND/OR OBSTRUCTIONS TO VISIBILITY. N/A MEANS
CURRENT SKY AND/OR WEATHER CONDITIONS ARE NOT AVAILABLE.

MNZ060>063-068>070-070800-
   Twin Cities Metro

CITY           SKY/WX    TMP DP  RH WIND       PRES   REMARKS
TWIN CITIES    CLOUDY    18   9  68 W17G28    29.87R WCI   3
ST PAUL        CLOUDY    19  11  70 W14G23    29.88R WCI   6
CRYSTAL        CLOUDY    19   9  65 W17G28    29.85R WCI   4
BLAINE         FLURRIES  21  12  68 W14G26    29.84R WCI   8
LAKEVILLE      MOCLDY    14   9  79 W17G29    29.88R WCI  -3
EDEN PRAIRIE   CLOUDY    18   9  68 W14       29.87R WCI   4
SOUTH ST PAUL  CLOUDY    19  10  69 W14G23    29.87R WCI   6
LAKE ELMO      CLOUDY    21  12  68 W18G26    29.86R WCI   6
$$
MNZ001>005-007-008-013>017-022>024-027-028-070800-
   Northwest Minnesota

CITY           SKY/WX    TMP DP  RH WIND       PRES   REMARKS
BEMIDJI        LGT SNOW  17  14  88 W21G29    29.61R WCI   0
HALLOCK        LGT SNOW  19  18  93 NW30G37   29.66R WCI   0
ROSEAU         LGT SNOW  23  19  86 W16G28    29.54R WCI  10
WARROAD        LGT SNOW  25  19  80 W10G16    29.52R WCI  15
THIEF RVR FALL LGT SNOW  17  14  88 W23G31    29.67R FOG     WCI  -1
CROOKSTON      LGT SNOW  18  16  93 NW35G41   29.73R VSB 3/4 WCI  -3
FOSSTON        LGT SNOW  14  12  92 W21G32    29.69R WCI  -4
DETROIT LAKES  LGT SNOW  14  12  92 W21G33    29.76R WCI  -4
MOORHEAD       MIX PCPN  12   9  85 W24G35    29.84R VSB 3/4 WCI  -8
PARK RAPIDS    LGT SNOW  15   8  73 W21       29.68R VSB 3/4 WCI  -2
$$
MNZ006-009>011-018-025>026-070800-
   North Central Minnesota

CITY           SKY/WX    TMP DP  RH WIND       PRES   REMARKS
BAUDETTE       CLOUDY    24  20  84 W9        29.49R WCI  14
FLAG ISLAND    CLOUDY    25  21  86 W14       29.48R WCI  13
INTL FALLS     LGT SNOW  20  17  88 S3        29.48R FOG
WASKISH        FLURRIES  25  21  86 W22G32    29.53R WCI  10
BIG FORK       LGT SNOW  21  18  86 SW15G22   29.52R WCI   8
LONGVILLE      LGT SNOW  18  12  79 W16G22    29.64R WCI   3
GRAND RAPIDS   LGT SNOW  19  15  84 W15G22    29.59R FOG     WCI   5
CRANE LAKE     LGT SNOW  19  18  93 SW3       29.51R
ORR            LGT SNOW  19  18  93 CALM      29.47S
COOK           FLURRIES  21  19  93 SW3       29.50R
$$
MNZ012-019>021-037-070800-
   Northeast Minnesota

CITY           SKY/WX    TMP DP  RH WIND       PRES   REMARKS
DULUTH         LGT SNOW  19  14  81 W24G32    29.57R BLWGSNOWWCI   2
ELY            LGT SNOW  19  18  93 W9        29.48R WCI   9
HIBBING        LGT SNOW  20  16  84 SW7G22    29.53R FOG     WCI  11
EVELETH        FLURRIES  22  18  84 SW15G23   29.53R WCI   9
DULUTH HARBOR  FLURRIES  25  18  74 SW26G35   29.63R WCI   9
TWO HARBORS    FLURRIES  25  18  74 W16G23    29.55R WCI  12
SILVER BAY     FLURRIES  21  19  93 SW8       29.52R WCI  12
GRAND MARAIS     N/A     26  22  84 W13       29.52R WCI  15
G MARAIS ARPRT LGT SNOW  18  14  86 S6        29.44R WCI   9
$$
MNZ029>031-032-039>041-046>048-054>057-064-070800-
   West Central Minnesota

CITY           SKY/WX    TMP DP  RH WIND       PRES   REMARKS
FERGUS FALLS   LGT SNOW  12   9  85 W26G32    29.90R WCI  -8
WHEATON        FLURRIES  14  10  85 W22G31    29.94R WCI  -4
MORRIS         CLOUDY    14   9  79 W26G33    29.89R WCI  -6
ALEXANDRIA     LGT SNOW  12   9  87 W26G33    29.83R FOG     WCI  -8
ELBOW LAKE     LGT SNOW  12   9  87 NW24G31   29.87R WCI  -8
WADENA         LGT SNOW  12   9  85 W13G24    29.75R WCI  -3
GLENWOOD       LGT SNOW  12  10  92 W23G33    29.84R WCI  -7
APPLETON       MOCLDY    16   7  67 W20G30    29.93S WCI  -1
BENSON         FLURRIES  16   7  67 NW26G32   29.90S WCI  -3
ORTONVILLE     CLEAR     12   5  73 W18       29.93S WCI  -5
MADISON        CLEAR     16   9  73 W21G26    29.97R WCI  -2
WILLMAR        FLURRIES  16  10  79 W23G30    29.91R WCI  -2
$$
MNZ033>034-036-042>043-049>051-058-059-070800-
   Central Minnesota

CITY           SKY/WX    TMP DP  RH WIND       PRES   REMARKS
ST CLOUD       CLOUDY    16  10  77 W21G31    29.82R WCI  -1
PAYNESVILLE    FLURRIES  15  10  82 W21       29.87R WCI  -3
AITKIN         FLURRIES  19  10  68 W17G28    29.66R WCI   4
PINE RIVER     LGT SNOW  16  10  79 W13G22    29.72R WCI   2
BRAINERD       LGT SNOW  16  10  77 W23G29    29.72R WCI  -2
STAPLES        LGT SNOW  12   9  85 W21G26    29.75R WCI  -6
LONG PRAIRIE   LGT SNOW  14  10  85 SW16G26   29.80R WCI  -2
LITTLE FALLS   FLURRIES  18  10  73 W14G21    29.78R WCI   4
LITCHFIELD     MIX PCPN  18  12  79 W17G25    29.88R WCI   2
BUFFALO        FLURRIES  18  11  74 W21G28    29.87R WCI   2
MAPLE LAKE     CLOUDY    19  12  76 W14G24    29.86R WCI   5
HUTCHINSON     CLOUDY    16  11  80 W25G35    29.90R WCI  -3
$$
MNZ037-044-045-052-053-070800-
   East Central Minnesota

CITY           SKY/WX    TMP DP  RH WIND       PRES   REMARKS
PRINCETON      CLOUDY    19  12  73 SW14G20   29.80R WCI   6
MORA           FLURRIES  19  12  73 W15G31    29.76R WCI   5
CAMBRIDGE      FLURRIES  19  10  68 SW14G22   29.78R WCI   6
RUSH CITY      CLOUDY    19  12  73 SW14G25   29.78R WCI   6
MOOSE LAKE     CLOUDY    21  14  73 W17G23    29.65R WCI   7
HINCKLEY       FLURRIES  21  14  73 W17G24    29.73R WCI   7
CLOQUET        LGT SNOW  19  12  73 SW14G22   29.60R WCI   6
MCGREGOR       CLOUDY    19  14  79 W13G22    29.66R WCI   7
$$
MNZ071>073-080-081-089-090-097-098-070800-
   Southwest Minnesota

CITY           SKY/WX    TMP DP  RH WIND       PRES   REMARKS
MONTEVIDEO     PTCLDY    14   7  73 NW14G24   29.96R WCI  -1
GRANITE FALLS  CLEAR     14   8  78 W20       29.98R WCI  -3
CANBY          PTCLDY    13   7  74 NW17G25   29.99R WCI  -3
MARSHALL       CLEAR     12   5  73 W26G33    29.95F WCI  -8
REDWOOD FALLS  CLEAR     14   5  67 W22G36    29.95S WCI  -4
OLIVIA         PTCLDY    16  10  79 W22       29.93R WCI  -2
PIPESTONE      CLEAR     10   3  72 NW24G35   29.98R WCI -10
WINDOM         CLEAR     12   7  79 W15G25    29.96R WCI  -4
WORTHINGTON    CLEAR     10   6  84 W23G29    30.01R WCI -10
JACKSON        CLEAR     12   5  73 W23G29    29.98R WCI  -7
TRACY          CLEAR     13   8  78 W12G21    29.96S WCI  -1
SLAYTON        PTCLDY    10   5  81 W23G35    29.96S WCI -11
$$
MNZ065>067-074>077-082>085-091>093-070800-
   South Central Minnesota

CITY           SKY/WX    TMP DP  RH WIND       PRES   REMARKS
MANKATO        CLEAR     14   8  77 W18G28    29.94R WCI  -3
NEW ULM        CLOUDY    14   7  73 W20G26    29.96R WCI  -3
ST JAMES       CLEAR     14   9  79 W16       29.98R WCI  -2
FAIRMONT       CLEAR     14   8  77 W21       29.99R WCI  -4
GLENCOE        FLURRIES  16  12  84 W17G30    29.90S WCI   0
FARIBAULT      PTCLDY    16  10  79 W15G23    29.92R WCI   1
OWATONNA       CLOUDY    16   9  73 W18G25    29.92S WCI  -1
WASECA         PTCLDY    14   9  79 W18       29.95R WCI  -3
ALBERT LEA     MOCLDY    18  12  79 W13G24    29.95R WCI   4
$$
MNZ078>079-086>088-094>096-070800-
   Southeast Minnesota

CITY           SKY/WX    TMP DP  RH WIND       PRES   REMARKS
ROCHESTER      FLURRIES  16  10  77 W25G32    29.89S WCI  -3
RED WING       CLOUDY    19   9  63 W16G26    29.88S WCI   5
STANTON        PTCLDY    17  10  73 W14G22    29.90R WCI   3
DODGE CENTER     N/A     16   9  73 W21G26    29.90R WCI  -2
WINONA         FLURRIES  21  14  73 W8G16     29.93R WCI  12
AUSTIN         MOCLDY    16   9  73 W14G23    29.93S WCI   1
PRESTON        LGT SNOW  15  10  80 W23       29.92R WCI  -4
$$
ABBREVIATIONS USED IN REMARKS
   TC - TEMPERATURES IN CELSIUS
  WCI - WIND CHILL INDEX
   HX - HEAT INDEX
  VSB - VISIBILITY
$$



USA.gov is the U.S. government's official web portal to all federal, state and local government web resources and services.